Wind_Speed
32 34 39 40 45 46 44 43 41 40 36 36 36 34 33 32 33 31 32 31 30 33 33 28 27 26 26 27 26 29 30 27 28 28 29 31 31 33 37 40 38 41 47 49 51 54 57
33 34 38 39 41 47 47 46 42 40 35 35 35 36 36 35 34 33 32 31 34 31 28 24 26 26 28 29 29 30 29 29 31 31 31 32 35 40 43 46 47 48 49 53 56 59 61
33 38 38 40 40 47 49 50 46 40 38 37 35 35 36 37 34 31 29 31 35 26 28 29 28 28 24 24 27 30 30 31 31 31 34 39 41 44 46 50 52 54 56 59 60 64 68
35 38 42 45 41 46 48 49 50 39 41 41 38 38 37 36 35 33 32 33 35 30 26 25 26 23 26 29 31 32 34 36 34 34 37 39 42 47 51 55 58 59 62 66 68 71 73
37 42 45 44 47 46 51 51 50 39 39 41 41 40 38 34 35 35 33 31 32 29 24 30 29 28 32 35 38 36 34 35 37 38 42 46 49 52 53 57 61 63 67 71 75 78 83
43 41 44 45 43 49 50 52 49 43 42 43 40 39 38 33 35 36 32 30 30 27 29 33 33 33 39 38 37 37 38 37 39 44 48 51 52 54 58 63 66 69 73 76 82 84 86
48 47 46 46 44 49 45 50 54 45 43 42 45 40 34 30 35 36 30 33 34 36 36 35 36 37 39 39 39 41 42 44 46 49 51 53 55 58 62 66 71 75 79 81 81 87 90
50 46 44 47 47 50 49 49 53 44 47 44 42 41 35 31 34 39 36 34 34 37 39 40 38 40 41 39 42 44 45 47 50 52 54 57 60 63 68 74 76 79 82 84 88 95 100
50 47 48 48 48 51 50 52 50 46 49 46 42 38 35 31 35 37 36 38 38 38 38 39 37 38 42 42 43 45 48 51 52 56 58 60 66 72 73 75 78 84 88 87 95 100 105
54 52 51 53 52 52 52 56 52 48 45 48 42 37 35 35 36 36 37 39 39 37 38 41 43 45 45 46 51 53 52 52 54 59 64 69 71 73 76 82 84 86 92 94 98 102 107
57 57 59 60 57 54 55 57 52 47 42 46 44 38 36 38 37 38 40 39 40 40 43 44 46 50 52 54 51 49 51 55 60 62 67 71 73 78 82 88 88 92 94 99 105 110 111
56 57 60 59 61 58 57 57 52 51 44 47 48 43 38 38 36 40 41 41 40 42 44 47 50 52 54 49 50 53 56 60 66 71 74 77 81 81 87 90 94 93 100 106 110 113 116
62 67 65 63 62 62 61 61 56 51 47 49 46 49 43 39 41 41 43 45 44 46 49 49 51 55 55 53 54 57 63 67 72 72 77 84 84 89 89 93 100 106 111 112 111 119 122
67 65 62 56 63 65 63 62 58 51 51 51 45 50 49 43 45 45 45 45 47 48 50 53 55 58 57 57 60 64 67 70 74 75 82 83 92 94 96 97 106 113 111 115 120 121 111
67 63 57 57 61 64 67 61 58 53 57 54 47 52 51 45 46 47 48 49 51 51 55 57 60 60 62 63 66 70 73 75 77 82 84 86 97 98 102 109 110 111 116 124 125 113 95
68 67 63 60 59 61 65 60 59 55 60 55 48 55 49 48 49 48 50 54 53 54 56 59 63 63 66 69 73 75 77 80 83 87 89 93 100 104 110 112 112 115 121 124 119 100 84
70 66 66 64 63 65 71 68 60 56 57 54 52 54 47 48 51 52 54 55 57 57 59 63 65 68 70 73 76 79 82 86 90 92 93 96 102 111 113 114 119 123 127 124 106 94 84
65 65 67 65 68 69 69 67 58 55 56 55 55 50 49 52 52 51 55 58 59 62 63 67 69 71 74 76 79 84 86 91 94 95 98 104 105 113 114 117 123 127 130 120 100 90 84
70 68 73 71 73 77 75 63 57 57 52 53 57 51 54 58 55 54 57 58 62 65 67 70 72 74 78 80 85 87 90 93 95 99 103 108 110 116 116 120 126 130 131 112 98 91 84
68 72 75 74 76 75 74 63 57 56 55 56 59 54 58 60 59 58 61 62 65 68 68 71 75 78 83 84 87 88 94 97 98 103 105 111 117 121 122 125 128 129 129 104 94 88 80
72 77 74 80 77 74 73 63 58 62 61 61 57 56 59 60 60 59 59 60 66 69 73 75 79 81 81 84 89 92 98 98 102 105 112 116 121 124 127 129 132 133 123 100 95 88 80
80 78 80 88 84 73 72 70 64 70 64 60 60 57 58 59 60 65 65 67 70 73 75 77 81 79 82 90 93 99 99 100 106 112 116 120 123 125 128 132 132 139 114 97 95 91 84
82 84 85 85 84 81 74 67 66 64 56 55 56 56 60 62 65 64 65 68 73 76 78 79 81 83 89 92 98 99 100 105 111 117 119 122 124 126 130 135 138 133 107 97 95 91 85
96 92 90 88 90 78 71 70 66 58 55 55 56 57 62 63 64 65 70 72 75 76 78 80 83 88 92 96 98 98 103 109 115 118 122 124 125 129 135 135 144 124 103 98 96 91 82
97 100 95 92 71 66 67 69 61 53 52 57 56 61 62 66 70 72 71 72 76 79 79 82 87 90 94 96 98 101 107 114 117 120 125 127 129 134 137 139 138 116 103 100 99 91 80
102 96 87 66 59 59 59 48 46 46 51 53 57 63 66 68 68 67 69 75 79 81 82 87 92 94 94 97 99 106 112 117 123 124 126 129 132 137 138 146 129 108 103 102 100 93 78
90 74 58 53 54 54 46 42 45 51 50 53 56 60 63 66 66 68 74 79 79 81 86 93 94 97 97 99 104 110 117 122 124 125 131 132 136 140 143 140 118 108 106 103 102 91 78
58 51 48 49 48 47 44 46 45 45 49 55 60 63 67 66 68 73 79 80 81 84 92 96 96 98 99 102 109 116 120 123 128 131 133 138 141 141 146 127 110 108 107 105 99 88 77
47 47 46 46 47 44 46 41 44 49 53 57 61 64 67 72 71 77 81 81 83 89 95 96 97 100 101 107 114 119 123 127 131 131 139 145 143 146 134 116 107 109 107 106 99 85 75
Wind_Direction
331 330 331 334 339 342 341 336 331 319 310 310 310 306 304 303 303 302 302 304 303 303 303 301 295 294 294 295 296 298 294 293 291 284 277 274 272 270 274 276 272 266 266 266 264 266 269
335 331 334 329 332 338 339 336 333 318 313 312 311 309 306 305 306 305 303 303 307 300 300 297 298 299 296 295 297 295 296 294 289 285 286 284 277 276 280 282 280 276 273 269 270 271 271
329 329 327 328 319 332 337 336 331 321 312 310 308 311 308 308 305 305 306 310 305 292 296 299 297 297 296 297 300 300 298 291 286 284 285 283 282 281 283 284 283 281 277 276 275 274 275
325 330 331 328 316 326 333 334 333 322 315 310 305 307 309 307 302 303 300 305 303 298 299 301 301 300 299 297 300 297 296 292 286 283 285 285 283 283 284 284 285 284 284 282 281 280 280
320 322 325 326 324 323 327 332 332 323 315 310 305 305 311 305 300 298 296 302 305 302 291 306 303 303 294 295 299 297 294 291 289 288 287 286 286 286 288 289 291 291 290 290 289 287 287
314 315 324 326 327 326 323 325 329 326 308 310 308 305 304 305 302 301 296 297 298 299 295 303 305 309 303 303 302 300 299 295 284 283 287 289 289 290 294 297 296 293 293 293 292 292 291
307 312 317 324 329 326 325 321 326 327 325 315 312 305 303 301 300 301 296 298 292 292 294 298 304 310 305 305 301 298 296 292 290 291 293 295 296 296 296 296 296 296 296 295 293 293 291
310 311 316 323 323 326 324 320 322 326 330 322 310 306 304 301 302 298 296 297 299 296 297 302 305 305 302 301 300 298 297 298 300 299 298 297 297 298 299 299 297 297 297 293 293 292 292
304 307 310 317 320 321 325 324 320 323 331 323 313 306 306 300 302 300 300 301 301 300 301 302 303 306 309 304 301 301 301 302 299 297 298 298 299 301 300 299 299 299 297 295 295 293 292
299 301 301 313 316 319 318 323 320 324 319 326 316 307 301 303 301 302 299 300 300 298 300 304 305 307 306 303 303 303 303 301 298 298 298 299 300 300 300 299 300 301 301 300 301 298 294
292 294 300 304 313 314 318 318 320 314 312 325 316 308 300 296 297 300 297 295 297 299 296 304 306 308 309 308 306 301 298 298 299 300 300 299 299 300 301 302 301 304 304 303 302 301 298
290 294 299 303 307 309 313 315 315 312 305 317 316 307 302 300 300 301 298 294 295 299 304 304 305 309 309 307 303 301 302 303 302 303 303 303 303 304 305 305 305 306 307 305 303 302 301
290 292 294 297 301 305 311 314 316 299 300 314 311 308 299 296 299 300 299 294 294 297 297 304 305 309 308 308 306 306 306 306 307 308 307 308 309 311 310 312 312 312 309 306 306 304 304
289 291 292 295 297 303 311 313 311 297 298 307 301 311 298 292 293 295 299 295 296 296 299 303 305 308 307 308 310 309 306 306 307 307 308 309 312 314 313 312 311 310 308 308 307 307 306
288 288 292 295 296 305 309 309 306 296 295 304 295 309 297 294 293 294 293 293 297 296 299 303 305 305 306 311 310 309 309 308 309 311 312 313 315 315 315 315 314 314 313 312 313 313 310
284 285 289 293 298 304 309 308 303 295 291 299 293 309 295 293 295 296 293 295 296 296 300 303 305 305 306 308 310 310 311 312 312 313 314 316 318 318 317 316 317 316 316 319 318 316 312
283 285 287 292 298 301 301 305 302 292 293 296 295 305 296 295 297 298 293 295 297 299 300 301 303 304 306 308 311 312 313 313 313 314 317 318 321 321 319 319 318 318 323 325 322 320 316
281 287 287 292 296 299 303 305 298 292 290 293 298 300 294 294 299 303 299 297 298 299 299 301 302 303 307 309 313 313 313 313 315 316 318 320 321 322 319 318 321 324 328 328 325 323 320
277 284 290 289 293 299 304 300 292 289 290 289 293 290 292 293 298 301 302 301 300 301 301 302 302 303 305 309 311 312 313 314 316 318 319 320 321 322 321 320 323 328 331 329 327 325 323
280 284 288 290 293 299 301 292 289 287 286 289 290 291 291 291 298 300 301 300 301 300 301 302 305 306 307 309 311 312 315 316 318 319 319 321 322 323 322 324 328 330 332 330 328 327 325
279 281 280 291 293 296 296 283 284 282 281 286 285 292 291 291 295 301 303 301 301 304 304 305 306 307 309 310 311 313 316 319 319 319 320 321 322 322 323 327 330 332 333 330 329 328 326
277 277 277 287 292 289 286 279 274 277 276 281 282 287 288 289 294 297 302 303 303 303 304 305 307 310 310 312 313 315 318 319 319 321 321 321 322 323 326 329 331 333 332 331 330 330 327
276 278 284 286 288 287 279 270 268 272 272 274 282 283 286 290 293 296 302 303 301 302 304 305 310 311 313 315 317 317 318 319 319 322 321 321 322 326 328 330 332 332 332 331 332 331 327
277 280 283 284 285 278 262 263 263 266 268 274 278 281 285 288 291 299 302 301 302 302 305 311 314 313 315 316 316 317 317 318 321 321 321 321 324 326 329 331 331 331 331 332 332 330 326
276 279 281 283 275 261 258 257 259 264 267 276 275 279 285 288 294 298 301 303 302 303 311 313 314 315 316 315 317 317 317 320 320 320 321 322 326 326 330 330 331 331 330 332 332 329 326
277 281 279 268 254 255 253 260 259 258 265 270 276 281 286 291 297 301 302 301 302 307 312 312 314 317 314 315 316 317 320 319 320 320 320 323 326 328 330 329 329 329 330 332 331 329 326
275 268 258 250 249 249 251 259 256 260 268 271 274 281 288 293 297 301 302 304 306 312 312 314 315 315 314 314 316 318 318 319 319 319 321 325 325 328 328 329 328 327 329 331 331 328 325
252 246 244 241 240 240 247 252 257 259 263 271 276 281 288 292 295 301 303 305 309 311 312 313 314 313 313 314 316 317 318 318 319 320 323 325 327 327 327 327 327 326 328 329 329 327 323
238 237 234 233 233 239 245 247 256 260 266 271 278 284 287 287 296 301 304 308 311 310 311 312 312 312 312 314 316 317 317 317 319 323 324 325 326 326 327 325 326 326 327 327 327 326 322
Height
10745 10742 10739 10735 10731 10726 10722 10717 10711 10707 10703 10699 10695 10692 10690 10687 10686 10684 10681 10679 10677 10674 10671 10670 10668 10668 10667 10666 10667 10665 10662 10662 10661 10660 10659 10659 10659 10658 10656 10655 10656 10655 10648 10646 10645 10640 10637
10740 10737 10734 10730 10726 10722 10717 10712 10706 10700 10698 10694 10690 10686 10684 10681 10679 10677 10674 10671 10670 10668 10665 10663 10663 10663 10661 10659 10659 10657 10655 10654 10652 10651 10651 10651 10650 10648 10646 10643 10644 10642 10641 10636 10635 10630 10625
10735 10732 10728 10724 10721 10717 10713 10707 10701 10695 10692 10689 10685 10681 10677 10675 10671 10670 10668 10665 10663 10661 10659 10656 10656 10656 10654 10653 10650 10646 10648 10645 10643 10642 10641 10641 10639 10637 10635 10631 10629 10627 10625 10621 10620 10613 10609
10730 10726 10723 10719 10716 10712 10708 10703 10697 10691 10687 10683 10679 10675 10671 10668 10665 10664 10663 10660 10657 10656 10653 10650 10650 10650 10648 10645 10644 10640 10636 10634 10634 10634 10631 10628 10626 10624 10622 10618 10615 10612 10608 10602 10599 10594 10589
10724 10721 10717 10714 10710 10706 10702 10697 10692 10686 10681 10676 10672 10668 10665 10662 10659 10657 10656 10653 10651 10650 10647 10644 10643 10643 10640 10637 10633 10632 10630 10627 10624 10621 10619 10617 10614 10611 10609 10604 10599 10594 10587 10582 10575 10571 10565
10717 10714 10710 10708 10704 10700 10695 10691 10686 10681 10675 10669 10665 10661 10658 10655 10653 10651 10649 10648 10645 10643 10640 10636 10635 10634 10630 10629 10624 10620 10617 10616 10614 10611 10608 10604 10601 10597 10593 10587 10581 10576 10570 10563 10556 10549 10544
10709 10707 10703 10700 10696 10694 10688 10685 10680 10675 10669 10663 10658 10653 10650 10648 10646 10644 10643 10641 10639 10636 10633 10630 10627 10625 10621 10617 10616 10611 10608 10606 10602 10598 10595 10591 10587 10583 10578 10571 10563 10555 10548 10540 10533 10523 10515
10701 10699 10696 10692 10689 10686 10682 10678 10673 10668 10661 10656 10650 10645 10643 10641 10640 10637 10634 10633 10631 10628 10623 10620 10618 10617 10613 10608 10603 10599 10597 10593 10588 10584 10580 10576 10570 10565 10560 10553 10544 10535 10527 10519 10509 10495 10485
10693 10691 10687 10685 10682 10678 10675 10670 10665 10661 10655 10649 10644 10639 10635 10634 10632 10629 10625 10623 10622 10620 10616 10613 10610 10607 10604 10599 10592 10589 10585 10580 10576 10570 10564 10559 10553 10547 10541 10532 10523 10512 10505 10494 10481 10469 10453
10685 10682 10678 10676 10674 10671 10667 10663 10657 10652 10647 10642 10636 10633 10629 10626 10624 10621 10617 10615 10613 10612 10607 10602 10599 10597 10594 10589 10583 10577 10572 10567 10562 10557 10551 10546 10539 10532 10522 10510 10504 10492 10478 10464 10450 10436 10424
10675 10672 10669 10667 10665 10663 10659 10655 10649 10644 10639 10634 10629 10625 10622 10618 10616 10612 10609 10606 10603 10601 10599 10592 10587 10582 10580 10575 10569 10565 10561 10556 10549 10543 10536 10527 10519 10512 10500 10487 10477 10465 10451 10435 10419 10401 10386
10664 10661 10659 10656 10655 10654 10651 10646 10640 10635 10631 10626 10621 10617 10614 10611 10607 10604 10600 10597 10594 10591 10588 10583 10577 10574 10568 10563 10555 10549 10545 10539 10533 10523 10515 10507 10498 10491 10478 10460 10447 10436 10422 10404 10385 10364 10344
10654 10652 10649 10645 10644 10644 10641 10636 10630 10626 10622 10617 10611 10608 10605 10601 10598 10594 10591 10588 10585 10580 10577 10574 10568 10562 10556 10551 10545 10538 10529 10520 10513 10506 10492 10480 10472 10461 10450 10435 10409 10396 10382 10369 10354 10327 10301
10642 10639 10638 10634 10633 10633 10630 10625 10621 10616 10612 10609 10602 10598 10594 10590 10588 10584 10581 10578 10574 10570 10565 10561 10556 10549 10542 10536 10529 10523 10516 10507 10499 10489 10481 10464 10446 10438 10421 10407 10393 10372 10353 10331 10314 10290 10265
10629 10628 10625 10623 10621 10621 10618 10613 10610 10606 10601 10598 10594 10589 10583 10580 10577 10573 10570 10567 10562 10558 10553 10548 10542 10536 10528 10521 10513 10507 10499 10489 10481 10470 10457 10444 10425 10410 10397 10381 10364 10341 10317 10292 10263 10242 10222
10617 10616 10613 10612 10610 10609 10606 10601 10598 10594 10591 10588 10584 10580 10574 10570 10566 10562 10558 10554 10550 10545 10541 10534 10528 10522 10514 10506 10498 10490 10481 10471 10461 10449 10437 10423 10405 10388 10367 10349 10331 10314 10290 10259 10223 10203 10189
10602 10603 10599 10600 10598 10597 10594 10590 10586 10583 10579 10576 10573 10569 10565 10560 10556 10552 10547 10542 10537 10533 10528 10521 10515 10508 10500 10490 10481 10471 10461 10449 10437 10425 10413 10399 10382 10358 10340 10320 10299 10276 10252 10221 10197 10171 10153
10590 10590 10587 10587 10586 10584 10582 10577 10574 10571 10568 10564 10560 10557 10553 10550 10546 10541 10535 10530 10526 10520 10514 10508 10501 10493 10484 10474 10465 10454 10442 10430 10416 10402 10388 10373 10358 10342 10320 10298 10274 10246 10219 10191 10168 10148 10125
10576 10577 10573 10574 10572 10568 10567 10563 10561 10559 10556 10553 10549 10546 10542 10538 10534 10529 10524 10517 10512 10506 10500 10493 10485 10477 10467 10458 10448 10436 10423 10410 10396 10380 10364 10348 10335 10319 10298 10278 10253 10224 10194 10164 10143 10122 10102
10563 10563 10560 10559 10558 10553 10551 10550 10548 10544 10544 10542 10539 10535 10529 10526 10522 10517 10511 10505 10498 10492 10485 10478 10470 10461 10451 10440 10429 10417 10404 10389 10374 10360 10344 10327 10308 10290 10270 10249 10225 10199 10173 10147 10126 10108 10092
10549 10551 10548 10544 10543 10540 10535 10533 10533 10534 10532 10530 10527 10522 10518 10514 10510 10504 10497 10491 10484 10477 10471 10462 10454 10444 10434 10422 10409 10396 10384 10368 10353 10338 10323 10304 10285 10263 10242 10221 10198 10175 10149 10126 10105 10089 10074
10533 10535 10535 10532 10529 10525 10524 10521 10520 10521 10520 10518 10515 10510 10505 10501 10497 10492 10484 10478 10471 10463 10456 10446 10436 10426 10415 10403 10390 10374 10362 10348 10332 10315 10298 10279 10259 10238 10216 10195 10171 10150 10128 10108 10088 10068 10052
10517 10518 10518 10518 10515 10510 10506 10507 10509 10508 10507 10504 10502 10498 10493 10488 10484 10478 10471 10464 10456 10449 10442 10430 10419 10407 10396 10384 10369 10354 10340 10326 10310 10293 10275 10256 10236 10215 10194 10173 10149 10130 10108 10090 10072 10054 10037
10498 10499 10500 10499 10499 10496 10493 10494 10495 10494 10494 10493 10490 10485 10481 10475 10470 10464 10458 10450 10443 10433 10426 10414 10402 10390 10377 10363 10349 10335 10321 10306 10289 10270 10252 10234 10215 10195 10174 10151 10132 10109 10090 10074 10056 10039 10024
10479 10478 10479 10479 10476 10475 10476 10479 10482 10481 10482 10480 10477 10472 10466 10462 10458 10451 10443 10435 10426 10417 10408 10396 10385 10373 10358 10344 10331 10317 10302 10287 10268 10250 10231 10213 10194 10173 10153 10131 10110 10087 10071 10057 10040 10024 10009
10457 10457 10457 10458 10456 10457 10461 10467 10469 10469 10469 10467 10463 10458 10454 10451 10444 10438 10429 10420 10410 10400 10389 10378 10366 10353 10340 10326 10312 10296 10279 10265 10248 10229 10209 10193 10172 10151 10131 10110 10088 10072 10056 10039 10023 10005 9992
10435 10435 10436 10439 10441 10445 10451 10456 10456 10457 10457 10454 10450 10446 10441 10437 10430 10422 10413 10403 10393 10383 10371 10359 10348 10334 10321 10307 10293 10277 10262 10242 10225 10208 10188 10171 10151 10128 10106 10086 10068 10049 10035 10020 10004 9989 9975
10415 10416 10422 10424 10429 10435 10440 10443 10445 10446 10444 10441 10436 10432 10428 10423 10416 10407 10397 10387 10376 10365 10354 10340 10330 10315 10302 10288 10273 10256 10240 10222 10203 10186 10162 10146 10128 10109 10088 10064 10049 10032 10016 10001 9990 9973 9959
10399 10405 10408 10413 10419 10425 10428 10431 10433 10433 10431 10428 10423 10419 10415 10408 10399 10391 10381 10371 10359 10347 10336 10323 10311 10297 10283 10268 10251 10235 10218 10201 10184 10166 10138 10118 10104 10089 10066 10043 10030 10014 9999 9982 9969 9958 9944